Regional Weather Roundup
Issued by NWS San Diego, CA

Home | Current Version | Previous Version | Text Only | Print | Product List | Glossary On
Versions: 1 2 3 4 5 6 7 8 9 10 11 12 13 14 15 16 17 18 19 20 21 22 23 24 25 26 27 28 29 30 31 32 33 34 35 36 37 38 39 40 41 42 43 44 45 46 47 48 49 50
000
ASUS46 KSGX 110911
RWRSGX

SAN DIEGO HOURLY WEATHER ROUNDUP
NATIONAL WEATHER SERVICE SAN DIEGO CA
100 AM PST THU FEB 11 2016

NOTE: "FAIR" INDICATES FEW OR NO CLOUDS BELOW 12,000 FEET WITH NO
SIGNIFICANT WEATHER AND/OR OBSTRUCTIONS TO VISIBILITY.

CAZ042-043-060-061-PZZ750-775-111000-

GREATER SAN DIEGO AREA

CITY           SKY/WX    TMP DP  RH WIND       PRES   REMARKS
LINDBERGH FLD  PTCLDY    60  35  39 NW3       30.10F
POINT LOMA       N/A     66  31  27 E5          N/A
NATIONAL CITY    N/A     56  39  53 CALM      30.09F
CHULA VISTA      N/A     53  39  59 E1        30.02S
IMPERIAL BEACH CLEAR     57  35  43 NE5       30.10S
BROWN FIELD    CLEAR     58  30  34 SE6       30.10S
MIRAMAR MCAS   PTCLDY    60  33  36 E8        30.09S
MONTGOMERY FLD CLEAR     56  37  49 CALM      30.10S

$$

NORTH SAN DIEGO COUNTY

CITY           SKY/WX    TMP DP  RH WIND       PRES   REMARKS
CAMP PENDLETON CLEAR     45  39  79 CALM      30.10S
OCEANSIDE AP   CLEAR     48  36  63 CALM      30.09S
OCEANSIDE HBR    N/A     57  39  50 NE3       30.11S
VISTA            N/A     55  37  51 CALM      30.08S
CARLSBAD       CLEAR     60  35  39 CALM      30.08S
DEL MAR          N/A     62  34  34 CALM      30.11S
FALLBROOK        N/A     65  32  28 CALM      30.09F
ESCONDIDO        N/A     55  38  53 CALM      30.11S
SAN MARCOS       N/A     67  33  28 CALM      30.07S
POWAY            N/A     49  37  63 CALM      30.11F

$$

EAST SAN DIEGO COUNTY

CITY           SKY/WX    TMP DP  RH WIND       PRES   REMARKS
RAMONA         CLEAR     44  34  67 E5        30.13F
SANTEE LAKES     N/A     49  38  64 CALM      30.10
LA MESA          N/A     62  32  32 CALM      30.03S
JAMUL            N/A     54  28  36 CALM      30.10F
DESCANSO N       N/A     59  17  19 E3        30.03S
MT. LAGUNA OBS   N/A     55   4  12 E3        29.84S
CAMPO            N/A     44  22  41 NE6       30.16F

$$

ORANGE COUNTY AND THE LOS ANGELES BASIN

CITY           SKY/WX    TMP DP  RH WIND       PRES   REMARKS
JOHN WAYNE AP  CLEAR     58  37  45 CALM      30.08S
LAGUNA BEACH     N/A     50  35  56 NW3       30.04F
LAKE FOREST FR   N/A     66  22  18 N3        29.96S
HUNTINGTON BCH   N/A     50  46  87 CALM      30.10S
LOS ALAMITOS   FAIR      53  43  69 CALM      30.07F
FULLERTON      CLEAR     56  40  55 CALM      30.07F
LONG BEACH     CLEAR     59  42  53 CALM      30.08F
L.A. AP        PTCLDY    66  35  31 NE7       30.08F
L.A. DOWNTOWN  CLEAR     64  34  32 N3        30.08S

$$

THE INLAND EMPIRE

CITY           SKY/WX    TMP DP  RH WIND       PRES   REMARKS
CORONA         CLEAR     47  37  68 CALM      30.12F
CHINO          CLEAR     51  40  65 CALM      30.13S
ONTARIO        CLEAR     58  37  45 CALM      30.12S
RIVERSIDE AP   CLEAR     57  31  37 CALM      30.13S
MORENO VALLEY    N/A     62  35  36 CALM      28.26S
MARCH ARB      CLEAR     44  30  57 CALM      30.14
HORSETHIEF CYN   N/A     60  24  25 W5        30.15S
PERRIS           N/A     58  32  36 CALM      30.17S
HEMET EAST       N/A     61  18  18 CALM      30.03S
FRENCH VALLEY  FAIR      50  36  57 CALM      30.15S
TEMECULA         N/A     56  40  54 CALM      30.11S

$$

SAN BERNARDINO AND RIVERSIDE COUNTY MOUNTAINS

CITY           SKY/WX    TMP DP  RH WIND       PRES   REMARKS
BIG BEAR AP    CLEAR     27  18  69 CALM      30.40F
ANGELUS OAKS     N/A     46  23  40 CALM      30.14S
PINE COVE        N/A     56   5  13 CALM      30.12F

$$

SOUTHERN DESERT INCLUDING THE COACHELLA VALLEY

CITY           SKY/WX    TMP DP  RH WIND       PRES   REMARKS
PALM SPRINGS   CLEAR     59  30  33 NW7       30.14S
THOUSAND PALMS   N/A     58  27  30 NW3       30.11R
PALM DESERT      N/A     57  36  45 CALM        N/A
THERMAL        CLEAR     47  32  56 CALM      30.10R
BLYTHE         CLEAR     59  25  27 NW5       30.13S
IMPERIAL AP    CLEAR     52  29  41 W7        30.10S
EL CENTRO NAS  CLEAR     53  25  33 W7        30.12R
YUMA AZ        PTCLDY    61  31  32 CALM      30.09

$$

UPPER DESERT

CITY           SKY/WX    TMP DP  RH WIND       PRES   REMARKS
VICTORVILLE AP   N/A     41  25  52 S7        30.25S
HESPERIA         N/A     45  27  50 CALM      30.36S
APPLE VALLEY     N/A     42  26  52 CALM      30.27S
PALMDALE       CLEAR     41  27  57 SW8       30.25S
LANCASTER      CLEAR     39  29  67 W3        30.25S
EDWARDS AFB    CLEAR     38  25  58 SW5       30.23S WCI  35
DAGGETT        CLEAR     46  24  42 W8        30.23S
29 PALMS N     CLEAR     48  21  34 NW6       30.28S
NEEDLES        CLEAR     54  26  34 W5        30.17S

$$

REGIONAL REPORTS

CITY           SKY/WX    TMP DP  RH WIND       PRES   REMARKS
SANTA BARBARA  CLEAR     50  45  83 CALM      30.08F
SANDBERG       CLEAR    N/A N/A N/A E14       30.29F
LAS VEGAS NV   CLEAR     51  26  37 W5        30.21R
PHOENIX AZ     PTCLDY    61  34  36 CALM      30.11R
TIJUANA        CLEAR     57  28  33 CALM      30.12S
ENSENADA NW      N/A     66  32  27 CALM      30.06S

$$

OFFSHORE ISLANDS

CITY           SKY/WX    TMP DP  RH WIND       PRES   REMARKS
CATALINA ARPT  CLEAR     72  21  14 N3        30.15S
SAN NICOLAS IS CLEAR    N/A N/A N/A CALM      30.09F

$$

MARINE AND OFFSHORE BUOY REPORTS

STATION/POSITION SKY/WX   TEMP    WIND        PRES    SWELL
                          AIR SEA DIR/SP/G            HT/PER/DIR
                          (F)     (DEG/KT/KT) (MB)    (FT/S/D)
TANNER BANKS               60 60  320/  8/  8 1018.7F   3/300/12
S CLEMENTE BASIN           61 62  240/  2/  4 1018.6F   3/280/12
SAN NICOLAS IS.               58                N/A     3/270/13
SO. S. ROSA ISLA           58 58              1018.2S
W. S. BARBARA CH           58 58   20/  4/  6 1018.2F   5/290/13
M. S. BARBARA CH           58 59  260/  6/  8 1019.3F
S. MONICA BASIN            61 60  290/  4/  4 1018.7S   3/260/13
S PEDRO CHANNEL               60                N/A     2/270/13
DANA POINT                    60                N/A     2/270/12
OCEANSIDE OFFSHR              60                N/A     2/260/13
TORREY PINES OTR              61                N/A     2/270/11
LA JOLLA 1                 66 60   60/  2/  4 1018.8F
SAN DIEGO BAY                 61              1019.5F
POINT LOMA SOUTH              62                N/A     3/270/13

$$




USA.gov is the U.S. government's official web portal to all federal, state and local government web resources and services.